Aurora, IL

12:29 PM CST on November 17, 2017 (GMT -0600)
Aurora Municipal

Weather History for KARR - March, 2014

Change the Weather History Date:

Sunday, March 2, 2014

  Actual Average Record
Temperature  
Mean Temperature 4 °F 31 °F  
Max Temperature 11 °F 40 °F 53 °F (2008)
Min Temperature -4 °F 22 °F -4 °F (2014)
Degree Days  
Heating Degree Days 61 34  
Month to date heating degree days 107 69  
Since 1 July heating degree days 5683 5207  
Cooling Degree Days 0 0  
Month to date cooling degree days 0 0  
Year to date cooling degree days 0 0  
Moisture  
Dew Point -1 °F    
Average Humidity 70    
Maximum Humidity 83    
Minimum Humidity 56    
Precipitation  
Precipitation 0.00 in 0.06 in 0.55 in (2002)
Month to date precipitation 0.13  
Year to date precipitation 1.85 3.22  
Sea Level Pressure  
Sea Level Pressure 30.40 in    
Wind  
Wind Speed 14 mph (NNW)    
Max Wind Speed 22 mph    
Max Gust Speed 25 mph    
Visibility 6 miles    
Events Snow    
T = Trace of Precipitation, MM = Missing Value Source: NWS Daily Summary

Daily Weather History Graph

Daily Weather History Graph

Search for Another Location

Airport or City:

Trip Planner

Search our weather history database for the weather conditions in past years. The results will help you decide how hot, cold, wet, or windy it might be!

Date:

Astronomy

Mar. 02, 2014 Rise Set
Actual Time 6:27 AM CST 5:45 PM CST
Civil Twilight 5:59 AM CST 6:13 PM CST
Nautical Twilight 5:27 AM CST 6:45 PM CST
Astronomical Twilight 4:54 AM CST 7:17 PM CST
Moon 6:56 AM CST (3/2) 7:43 PM CST (3/2)
Length of Visible Light 12h 14m
Length of Day
11h 18m
Waxing Crescent, 3% of the Moon is Illuminated
Mar 2
Waxing Crescent
Mar 8
First Quarter
Mar 16
Full
Mar 23
Last Quarter
Mar 30
New

Hourly Weather History & Observations

Time (CST) Temp. Windchill Dew Point Humidity Pressure Visibility Wind Dir Wind Speed Gust Speed Precip Events Conditions
12:18 AM 10.0 °F -3.7 °F 6.1 °F 84% 30.35 in 1.0 mi NNW 10.4 mph - 0.00 in Snow Light Snow
12:26 AM 10.0 °F -4.5 °F 6.1 °F 84% 30.35 in 0.8 mi NNW 11.5 mph - 0.00 in Snow Light Snow
12:40 AM 10.0 °F -6.5 °F 6.1 °F 84% 30.35 in 1.2 mi North 15.0 mph - 0.00 in Snow Light Snow
12:50 AM 10.4 °F -4.8 °F 5.0 °F 79% 30.35 in 1.5 mi North 12.7 mph - 0.00 in Snow Light Snow
12:52 AM 10.0 °F -5.2 °F 5.0 °F 80% 30.39 in 1.5 mi North 12.7 mph - 0.00 in Snow Light Snow
1:12 AM 10.0 °F -5.9 °F 5.0 °F 80% 30.33 in 2.0 mi North 13.8 mph - 0.00 in Snow Light Snow
1:23 AM 10.0 °F -4.5 °F 5.0 °F 80% 30.33 in 3.0 mi North 11.5 mph - 0.00 in Snow Light Snow
1:52 AM 10.0 °F -4.5 °F 5.0 °F 80% 30.37 in 9.0 mi North 11.5 mph - 0.00 in   Overcast
2:49 AM 8.6 °F -8.3 °F 3.2 °F 79% 30.32 in 2.5 mi North 15.0 mph - 0.00 in Snow Light Snow
2:52 AM 9.0 °F -8.5 °F 3.0 °F 77% 30.37 in 3.0 mi North 16.1 mph - 0.00 in Snow Light Snow
3:02 AM 9.0 °F -7.9 °F 3.0 °F 77% 30.33 in 2.5 mi North 15.0 mph - 0.00 in Snow Light Snow
3:13 AM 9.0 °F -5.9 °F 3.9 °F 80% 30.33 in 4.0 mi North 11.5 mph - 0.00 in Snow Light Snow
3:52 AM 9.0 °F -7.9 °F 3.0 °F 77% 30.38 in 6.0 mi North 15.0 mph - 0.00 in   Haze
4:09 AM 8.1 °F -8.4 °F 3.0 °F 80% 30.35 in 2.0 mi NNW 13.8 mph - 0.00 in Snow Light Snow
4:18 AM 8.1 °F -7.0 °F 3.0 °F 80% 30.34 in 1.8 mi NNW 11.5 mph - 0.00 in Snow Light Snow
4:33 AM 8.1 °F -7.0 °F 3.0 °F 80% 30.35 in 2.5 mi NNW 11.5 mph - 0.00 in Snow Light Snow
4:40 AM 7.0 °F -9.8 °F 1.9 °F 80% 30.35 in 3.0 mi NNW 13.8 mph - 0.00 in Snow Light Snow
4:52 AM 7.0 °F -10.4 °F 1.0 °F 77% 30.40 in 7.0 mi NNW 15.0 mph - 0.00 in   Mostly Cloudy
5:52 AM 7.0 °F -9.8 °F -0.9 °F 70% 30.39 in 10.0 mi North 13.8 mph - N/A   Overcast
6:52 AM 6.1 °F -12.2 °F -2.0 °F 69% 30.40 in 9.0 mi NNW 16.1 mph - N/A   Overcast
7:52 AM 5.0 °F -14.2 °F -2.9 °F 70% 30.42 in 8.0 mi NNW 17.3 mph - N/A   Overcast
8:52 AM 5.0 °F -13.6 °F -2.9 °F 70% 30.44 in 9.0 mi NNW 16.1 mph - N/A   Overcast
9:52 AM 5.0 °F -16.2 °F -4.0 °F 66% 30.44 in 7.0 mi NNW 21.9 mph - N/A   Overcast
10:52 AM 6.1 °F -13.3 °F -2.9 °F 67% 30.44 in 9.0 mi NNW 18.4 mph - N/A   Overcast
11:52 AM 6.1 °F -13.3 °F -4.0 °F 63% 30.44 in 10.0 mi NNW 18.4 mph - N/A   Partly Cloudy
12:52 PM 6.1 °F -13.3 °F -2.9 °F 67% 30.43 in 9.0 mi NNW 18.4 mph - N/A   Clear
1:52 PM 7.0 °F -12.1 °F -2.9 °F 64% 30.40 in 8.0 mi NNW 18.4 mph - N/A   Mostly Cloudy
2:52 PM 6.1 °F -12.8 °F -4.0 °F 63% 30.43 in 10.0 mi NNW 17.3 mph - N/A   Clear
3:52 PM 6.1 °F -12.2 °F -4.0 °F 63% 30.41 in 9.0 mi NNW 16.1 mph - N/A   Clear
4:52 PM 5.0 °F -13.0 °F -7.1 °F 58% 30.43 in 10.0 mi NNW 15.0 mph - N/A   Clear
5:52 PM 3.9 °F -12.2 °F -9.9 °F 53% 30.44 in 10.0 mi NNW 11.5 mph - N/A   Clear
6:52 PM 1.9 °F -11.8 °F -9.9 °F 58% 30.45 in 10.0 mi North 8.1 mph - N/A   Clear
7:52 PM 1.9 °F -13.8 °F -11.0 °F 55% 30.45 in 10.0 mi NNW 10.4 mph - N/A   Clear
8:52 PM -2.0 °F -16.6 °F -11.9 °F 63% 30.47 in 10.0 mi NNW 8.1 mph - N/A   Clear
9:52 PM -2.0 °F -10.1 °F -13.0 °F 60% 30.48 in 10.0 mi North 3.5 mph - N/A   Clear
10:52 PM -2.0 °F -10.1 °F -14.1 °F 57% 30.48 in 10.0 mi North 3.5 mph - N/A   Clear
11:52 PM -2.9 °F -11.2 °F -14.1 °F 59% 30.49 in 10.0 mi North 3.5 mph - N/A   Clear